Date String (YYYY-MM-DD hh:mm:ss) UTC,Instrument flags,Ambient pressure (hPa),Sample flow (lpm),Bypass flow (lpm),Sample temperature (°C),Ambient temperature (°C),ASC tube jacket temperature (°C),LED temperature (°C),Box temperature (°C),Sample RH (%),Span deviation,Mass concentration (μg/m³),Mass concentration (μg/m³),Mass concentration (μg/m³)
DateTimeUTC,F1_M11,P_M11,Q1_M11,Q2_M11,T1_M11,T2_M11,T3_M11,T4_M11,T5_M11,U1_M11,ZSPAN_M11,X0_M11,X2_M11,X1_M11
2022-09-04 01:00:00,,0832.2,4.99,0.00,29.5,26.8,00.0,38.1,31.2,23.6,0000.0,0012.45,0005.63,0005.00
2022-09-04 01:01:00,,0832.2,5.01,0.00,29.5,27.2,00.0,38.1,31.2,23.7,0000.0,0012.78,0005.63,0004.98
2022-09-04 01:02:00,,0832.2,5.01,0.00,29.5,27.5,00.0,38.1,31.2,23.7,0000.0,0013.01,0005.60,0004.97
2022-09-04 01:03:00,,0832.2,5.00,0.00,29.5,27.8,00.0,38.1,31.3,23.6,0000.0,0012.92,0005.58,0004.97
2022-09-04 01:04:00,,0832.2,4.98,0.00,29.5,28.1,00.0,38.1,31.4,23.4,0000.0,0013.15,0005.56,0004.96
2022-09-04 01:05:00,,0832.2,5.00,0.00,29.6,28.3,00.0,38.1,31.5,23.0,0000.0,0012.87,0005.53,0004.94
2022-09-04 01:06:00,,0832.2,5.00,0.00,29.6,28.5,00.0,38.2,31.5,23.4,0000.0,0011.62,0005.52,0004.94
2022-09-04 01:07:00,,0832.2,4.99,0.00,29.7,28.2,00.0,38.2,31.6,23.9,0000.0,0010.82,0005.51,0004.93
2022-09-04 01:08:00,,0832.3,5.01,0.00,29.6,27.0,00.0,38.2,31.4,23.1,0000.0,0010.38,0005.47,0004.92
2022-09-04 01:09:00,,0832.2,5.00,0.00,29.6,26.5,00.0,38.2,31.3,23.3,0000.0,0010.02,0005.45,0004.91
2022-09-04 01:10:00,,0832.2,4.99,0.00,29.5,26.7,00.0,38.2,31.3,23.6,0000.0,0010.31,0005.46,0004.91
2022-09-04 01:11:00,,0832.3,5.01,0.00,29.5,27.0,00.0,38.1,31.2,23.3,0000.0,0010.46,0005.47,0004.91
2022-09-04 01:12:00,,0832.2,5.00,0.00,29.5,27.3,00.0,38.1,31.2,23.4,0000.0,0010.60,0005.47,0004.92
2022-09-04 01:13:00,,0832.3,5.00,0.00,29.5,27.6,00.0,38.1,31.2,23.2,0000.0,0010.90,0005.50,0004.94
2022-09-04 01:14:00,,0832.3,5.01,0.00,29.5,27.9,00.0,38.1,31.3,23.3,0000.0,0011.85,0005.52,0004.95
2022-09-04 01:15:00,,0832.2,5.00,0.00,29.5,28.1,00.0,38.1,31.4,23.6,0000.0,0012.43,0005.54,0004.96
2022-09-04 01:16:00,,0832.3,5.00,0.00,29.6,28.3,00.0,38.2,31.5,23.4,0000.0,0012.72,0005.58,0004.97
2022-09-04 01:17:00,,0832.3,5.01,0.00,29.6,28.5,00.0,38.2,31.6,23.3,0000.0,0012.68,0005.58,0004.99
2022-09-04 01:18:00,,0832.3,4.98,0.00,29.6,27.8,00.0,38.2,31.5,23.3,0000.0,0012.70,0005.59,0004.99
2022-09-04 01:19:00,,0832.2,5.00,0.00,29.6,26.6,00.0,38.2,31.3,23.3,0000.0,0012.81,0005.63,0005.00
2022-09-04 01:20:00,,0832.2,5.01,0.00,29.5,26.4,00.0,38.2,31.3,23.5,0000.0,0012.99,0005.62,0005.01
2022-09-04 01:21:00,,0832.2,5.00,0.00,29.5,26.6,00.0,38.1,31.2,23.7,0000.0,0012.97,0005.62,0005.02
2022-09-04 01:22:00,,0832.1,4.99,0.00,29.4,27.0,00.0,38.1,31.1,23.7,0000.0,0012.91,0005.60,0005.00
2022-09-04 01:23:00,,0832.1,5.01,0.00,29.4,27.3,00.0,38.1,31.2,23.6,0000.0,0012.77,0005.62,0005.00
2022-09-04 01:24:00,,0832.2,5.00,0.00,29.4,27.6,00.0,38.1,31.2,23.3,0000.0,0012.09,0005.60,0004.99
2022-09-04 01:25:00,,0832.2,5.01,0.00,29.5,27.9,00.0,38.1,31.3,23.0,0000.0,0011.00,0005.55,0004.98
2022-09-04 01:26:00,,0832.2,5.01,0.00,29.5,28.1,00.0,38.1,31.4,23.0,0000.0,0010.45,0005.55,0004.98
2022-09-04 01:27:00,,0832.2,4.99,0.00,29.5,28.3,00.0,38.1,31.4,23.0,0000.0,0010.40,0005.51,0004.96
2022-09-04 01:28:00,,0832.2,5.01,0.00,29.6,28.5,00.0,38.2,31.5,22.5,0000.0,0010.55,0005.54,0004.96
2022-09-04 01:29:00,,0832.3,4.99,0.00,29.6,28.5,00.0,38.2,31.6,22.4,0000.0,0010.59,0005.55,0004.97
2022-09-04 01:30:00,,0832.2,5.01,0.00,29.6,27.4,00.0,38.2,31.5,22.6,0000.0,0010.62,0005.55,0004.96
2022-09-04 01:31:00,,0832.2,4.99,0.00,29.6,26.4,00.0,38.2,31.3,22.1,0000.0,0010.74,0005.53,0004.95
2022-09-04 01:32:00,,0832.2,5.00,0.00,29.5,26.4,00.0,38.2,31.3,22.2,0000.0,0011.02,0005.51,0004.95
2022-09-04 01:33:00,,0832.2,5.00,0.00,29.5,26.7,00.0,38.1,31.2,22.6,0000.0,0011.37,0005.53,0004.96
2022-09-04 01:34:00,,0832.3,5.01,0.00,29.4,27.0,00.0,38.1,31.2,22.4,0000.0,0011.43,0005.52,0004.96
2022-09-04 01:35:00,,0832.3,5.00,0.00,29.4,27.4,00.0,38.1,31.2,22.4,0000.0,0011.41,0005.50,0004.95
2022-09-04 01:36:00,,0832.2,5.00,0.00,29.4,27.7,00.0,38.1,31.3,22.3,0000.0,0011.68,0005.52,0004.95
2022-09-04 01:37:00,,0832.2,4.99,0.00,29.5,28.0,00.0,38.1,31.4,22.0,0000.0,0011.53,0005.52,0004.94
2022-09-04 01:38:00,,0832.3,5.00,0.00,29.5,28.2,00.0,38.1,31.4,21.8,0000.0,0010.95,0005.52,0004.94
2022-09-04 01:39:00,,0832.3,5.01,0.00,29.6,28.4,00.0,38.2,31.5,21.7,0000.0,0011.11,0005.49,0004.92
2022-09-04 01:40:00,,0832.3,4.98,0.00,29.6,28.6,00.0,38.2,31.6,21.6,0000.0,0011.24,0005.43,0004.90
2022-09-04 01:41:00,,0832.2,5.01,0.00,29.7,28.4,00.0,38.2,31.6,21.5,0000.0,0011.12,0005.41,0004.89
2022-09-04 01:42:00,,0832.2,5.00,0.00,29.6,27.1,00.0,38.2,31.4,21.6,0000.0,0010.80,0005.41,0004.88
2022-09-04 01:43:00,,0832.3,5.01,0.00,29.6,26.3,00.0,38.2,31.3,21.7,0000.0,0010.23,0005.42,0004.88
2022-09-04 01:44:00,,0832.2,5.00,0.00,29.5,26.5,00.0,38.2,31.3,21.7,0000.0,0009.66,0005.39,0004.87
2022-09-04 01:45:00,,0832.3,5.00,0.00,29.4,26.7,00.0,38.1,31.2,21.6,0000.0,0009.25,0005.34,0004.86
2022-09-04 01:46:00,,0832.3,5.00,0.00,29.4,27.1,00.0,38.1,31.2,21.6,0000.0,0009.23,0005.36,0004.86
2022-09-04 01:47:00,,0832.3,5.00,0.00,29.4,27.4,00.0,38.1,31.2,21.4,0000.0,0009.38,0005.35,0004.85
2022-09-04 01:48:00,,0832.2,5.01,0.00,29.4,27.7,00.0,38.1,31.3,21.3,0000.0,0009.58,0005.34,0004.85
2022-09-04 01:49:00,,0832.3,5.01,0.00,29.5,28.0,00.0,38.1,31.4,21.4,0000.0,0009.70,0005.31,0004.85
2022-09-04 01:50:00,,0832.3,4.99,0.00,29.5,28.2,00.0,38.2,31.5,21.4,0000.0,0009.65,0005.29,0004.85
2022-09-04 01:51:00,,0832.3,5.01,0.00,29.6,28.4,00.0,38.2,31.5,21.6,0000.0,0009.45,0005.30,0004.85
2022-09-04 01:52:00,,0832.2,5.00,0.00,29.6,28.6,00.0,38.2,31.6,20.9,0000.0,0009.57,0005.31,0004.87
2022-09-04 01:53:00,,0832.3,5.00,0.00,29.7,28.6,00.0,38.2,31.7,20.6,0000.0,0009.76,0005.36,0004.89
2022-09-04 01:54:00,,0832.3,4.99,0.00,29.7,27.4,00.0,38.2,31.5,20.4,0000.0,0009.94,0005.40,0004.93
2022-09-04 01:55:00,,0832.2,5.00,0.00,29.6,26.4,00.0,38.2,31.4,20.7,0000.0,0010.44,0005.47,0004.97
2022-09-04 01:56:00,,0832.2,5.00,0.00,29.6,26.4,00.0,38.2,31.3,20.9,0000.0,0010.57,0005.52,0005.01
2022-09-04 01:57:00,,0832.3,5.01,0.00,29.5,26.7,00.0,38.2,31.2,20.9,0000.0,0010.74,0005.55,0005.04
2022-09-04 01:58:00,,0832.3,5.00,0.00,29.4,27.0,00.0,38.1,31.2,20.9,0000.0,0010.51,0005.57,0005.07
2022-09-04 01:59:00,,0832.3,5.00,0.00,29.5,27.4,00.0,38.1,31.3,20.9,0000.0,0010.22,0005.61,0005.12
